www.pogodaiklimat.ru

Погода и климат >> Архив погоды >> Канарские Острова >> La Palma


ПОГОДА в La Palma

  • Прогноз погоды в La Palma
  • Монитор погоды в La Palma
  • Климат города

АРХИВ ПОГОДЫ в La Palma

Время (UTC), дата Ветер
(напр.,м/с)
 
Видим.   Явления Облачность Т
(С)
Тd
(С)
f
(%)
Тe
(С)
Тes
(С)
Комфортность P
(гПа)
Po
(гПа)
Тmin
(С)
Tmax
(С)
R
(мм)
R24
(мм)
S
(см)
01 15.10 С 4 н/о н/о +25.3 +19.9 72 +31 +31 очень
душно
1016.1 1012.5
02 15.10 штиль 0 н/о н/о +24.9 +13.4 49 +27 +27 жарко 1015.4 1011.8
03 15.10 штиль 0 н/о н/о +25.2 +15.4 55 +28 +28 жарко 1015.3 1011.7
04 15.10 С 3 н/о н/о +25.1 +17.1 61 +29 +29 душно 1014.9 1011.3
05 15.10 С 4 н/о н/о +26.0 +15.7 53 +29 +29 душно 1015.0 1011.4
06 15.10 З 1 15 км [макс. диам. градин 0 мм] 8/0
[Ac As]
+26.7 +12.3 41 +28 +28 жарко 1015.2 1011.6 +23.9
07 15.10 штиль 0 н/о н/о +24.7 +17.7 65 +29 +29 душно 1015.7 1012.1
08 15.10 Ю 4 н/о н/о +25.1 +19.9 73 +31 +31 очень
душно
1017.3 1013.7
09 15.10 штиль 0 15 км [макс. диам. градин 0 мм] 8/0
[Ac As]
+26.0 +19.4 67 +31 +33 очень
душно
1017.8 1014.2
10 15.10 В 1 н/о н/о +25.6 +21.7 79 +33 +33 очень
душно
1018.3 1014.7
11 15.10 В 1 н/о н/о +25.9 +22.6 82 +34 +34 очень
душно
1018.4 1014.8
12 15.10 ЮВ 1 10 км [макс. диам. градин 0 мм] 4/0
[Ac trans]
+27.4 +20.8 67 +34 +45 очень
душно
1018.0 1014.4
13 15.10 СВ 1 н/о н/о +26.4 +22.0 77 +34 +34 очень
душно
1017.6 1014.0
14 15.10 СВ 3 н/о н/о +26.5 +19.3 65 +32 +32 очень
душно
1016.9 1013.3
15 15.10 СВ 3 20 км [макс. диам. градин 0 мм] 4/1 600 м
[Sc Ac trans]
+27.0 +18.4 59 +32 +38 очень
душно
1017.0 1013.4
16 15.10 С 5 н/о н/о +26.4 +21.4 74 +34 +34 очень
душно
1016.9 1013.3
17 15.10 С 4 н/о н/о +25.9 +21.8 78 +33 +33 очень
душно
1016.9 1013.3
18 15.10 СВ 1 30 км [макс. диам. градин 0 мм] 8/0
[Ac und]
+25.5 +20.5 74 +32 +32 очень
душно
1017.1 1013.5 +27.7
19 15.10 СВ 5 н/о н/о +24.9 +21.5 81 +32 +32 очень
душно
1017.7 1014.1
20 15.10 С 4 н/о н/о +24.7 +21.2 81 +31 +31 очень
душно
1018.3 1014.7
21 15.10 С 3 н/о н/о +24.6 +21.3 82 +31 +31 очень
душно
1018.7 1015.1
22 15.10 СВ 1 н/о н/о +24.5 +21.6 84 +31 +31 очень
душно
1019.3 1015.7
23 15.10 ЮЗ 1 н/о н/о +24.0 +20.7 82 +30 +30 очень
душно
1019.3 1015.7
00 16.10 штиль 0 н/о н/о +23.8 +19.5 77 +29 +29 душно 1018.9 1015.3
01 16.10 С 4 н/о н/о +24.2 +21.5 85 +31 +31 очень
душно
1018.7 1015.1
02 16.10 С 5 н/о н/о +24.0 +21.7 87 +31 +31 очень
душно
1018.3 1014.7
03 16.10 З 1 н/о н/о +23.5 +20.6 84 +29 +29 душно 1018.0 1014.4
04 16.10 штиль 0 н/о н/о +22.9 +19.3 80 +29 +29 очень
душно
1018.0 1014.3
05 16.10 СЗ 1 н/о н/о +22.7 +19.9 84 +29 +29 очень
душно
1018.1 1014.4
06 16.10 штиль 0 15 км [макс. диам. градин 0 мм] ясно +22.8 +20.5 87 +30 +30 очень
душно
1018.5 1014.8 +22.6
07 16.10 СЗ 2 н/о н/о +22.7 +19.5 82 +29 +29 очень
душно
1018.6 1014.9
08 16.10 СЗ 1 н/о н/о +23.2 +20.3 84 +30 +30 очень
душно
1019.4 1015.7
09 16.10 С 1 20 км [макс. диам. градин 0 мм] 8/1 600 м
[Cu Sc Ac cuf]
+24.7 +21.2 81 +31 +32 очень
душно
1020.2 1016.6
10 16.10 штиль 0 н/о н/о +25.0 +21.1 79 +32 +32 очень
душно
1021.1 1017.5
11 16.10 СВ 1 н/о н/о +26.2 +22.0 78 +34 +34 очень
душно
1021.1 1017.5
12 16.10 СВ 2 20 км [макс. диам. градин 0 мм] 8/1 600 м
[Cu Sc Ac cuf Ci fib]
+25.7 +21.9 80 +33 +40 очень
душно
1020.9 1017.3 0.0
13 16.10 С 2 н/о н/о +26.4 +22.1 77 +34 +34 очень
душно
1020.4 1016.8
14 16.10 С 2 н/о н/о +26.5 +21.9 76 +34 +34 очень
душно
1019.9 1016.3
15 16.10 СВ 2 40 км [макс. диам. градин 0 мм] 6/1 300 м
[Cu Sc Ac As Cs]
+26.1 +21.9 78 +34 +41 очень
душно
1019.8 1016.2
16 16.10 С 3 н/о н/о +26.2 +22.0 78 +34 +34 очень
душно
1019.7 1016.1
17 16.10 СВ 4 н/о н/о +24.8 +22.3 86 +32 +32 очень
душно
1019.9 1016.3
18 16.10 СВ 6 30 км [макс. диам. градин 0 мм] 8/5 300 м
[Cu Sc Ac As Ci fib]
+24.3 +22.3 89 +32 +32 очень
душно
1020.0 1016.4 +27.7 0.0
19 16.10 СВ 5 н/о н/о +23.9 +22.0 89 +31 +31 очень
душно
1020.1 1016.5
20 16.10 СВ 4 н/о н/о +23.8 +21.8 89 +31 +31 очень
душно
1020.2 1016.6
21 16.10 С 4 н/о н/о +23.9 +22.0 89 +31 +31 очень
душно
1020.9 1017.3
22 16.10 С 5 н/о н/о +23.6 +21.5 88 +30 +30 очень
душно
1021.4 1017.7
23 16.10 С 6 н/о н/о +23.8 +21.7 88 +30 +30 очень
душно
1021.5 1017.8
00 17.10 С 6 н/о н/о +23.6 +20.6 83 +29 +29 душно 1021.1 1017.4
01 17.10 С 6 н/о н/о +23.7 +20.2 81 +29 +29 душно 1020.7 1017.0
02 17.10 С 9 н/о н/о +23.3 +20.4 84 +31 +31 очень
душно
1020.6 1016.9
03 17.10 С 10 н/о н/о +23.1 +20.4 85 +30 +30 очень
душно
1020.2 1016.5
04 17.10 С 10 н/о н/о +22.8 +20.0 84 +29 +29 очень
душно
1019.9 1016.2
05 17.10 С 5 н/о н/о +22.8 +19.2 80 +29 +29 очень
душно
1020.3 1016.6
06 17.10 С 5 30 км [макс. диам. градин 0 мм] 5/5 600 м
[Cu Sc]
+22.6 +19.5 83 +29 +29 очень
душно
1020.8 1017.1 +22.6 0.0
07 17.10 С 4 н/о н/о +22.6 +18.6 78 +28 +28 душно 1021.2 1017.5
08 17.10 С 5 н/о н/о +23.0 +19.5 81 +30 +30 очень
душно
1021.9 1018.2
09 17.10 С 6 40 км [макс. диам. градин 0 мм] 6/4 300 м
[Cu Sc Ac As Cs]
+23.4 +19.6 79 +30 +31 очень
душно
1022.3 1018.6
10 17.10 СВ 7 н/о н/о +24.4 +20.1 77 +30 +30 очень
душно
1022.8 1019.1
11 17.10 СВ 8 н/о н/о +24.8 +19.7 73 +30 +30 душно 1022.6 1019.0
12 17.10 СВ 9 50 км [макс. диам. градин 0 мм] 6/4 600 м
[Cu Sc Cs]
+25.0 +19.8 73 +31 +31 очень
душно
1022.7 1019.1
13 17.10 СВ 8 н/о н/о +24.9 +19.5 72 +30 +30 душно 1022.4 1018.8
14 17.10 СВ 8 н/о н/о +24.8 +19.4 72 +30 +30 душно 1021.7 1018.1
15 17.10 С 9 30 км [макс. диам. градин 0 мм] 3/3 600 м
[Cu Sc Ci fib]
+24.5 +19.6 74 +30 +30 очень
душно
1021.2 1017.6
16 17.10 С 11 н/о н/о +23.5 +19.2 77 +28 +28 душно 1021.4 1017.7
17 17.10 С 10 н/о н/о +23.4 +18.5 74 +30 +30 очень
душно
1021.5 1017.8
18 17.10 С 10 30 км [макс. диам. градин 0 мм] 8/5 600 м
[Sc Ci fib]
+23.1 +18.6 76 +29 +29 очень
душно
1021.6 1017.9 +25.2
19 17.10 С 9 н/о н/о +22.7 +17.7 73 +28 +28 душно 1021.9 1018.2
20 17.10 С 9 н/о н/о +22.7 +17.6 73 +28 +28 душно 1022.3 1018.6
21 17.10 С 9 н/о н/о +22.6 +17.1 71 +27 +27 душно 1022.8 1019.1
22 17.10 С 9 н/о н/о +22.6 +17.9 75 +28 +28 душно 1023.3 1019.6
23 17.10 С 7 н/о н/о +22.1 +16.7 71 +26 +26 душно 1023.4 1019.7
00 18.10 С 8 н/о н/о +21.8 +15.6 68 +25 +25 комфорт 1023.0 1019.3
01 18.10 СЗ 2 н/о н/о +20.9 +15.2 70 +25 +25 комфорт 1022.6 1018.9
02 18.10 З 1 н/о н/о +20.8 +14.0 65 +25 +25 комфорт 1022.1 1018.4
03 18.10 ЮЗ 1 н/о н/о +20.7 +13.6 64 +25 +25 комфорт 1021.4 1017.7
04 18.10 З 1 н/о н/о +20.9 +13.3 62 +25 +25 комфорт 1021.0 1017.3
05 18.10 З 1 н/о н/о +21.1 +13.8 63 +24 +24 комфорт 1020.9 1017.2
06 18.10 ЮЗ 1 30 км [макс. диам. градин 0 мм] ясно +20.0 +13.2 65 +23 +23 комфорт 1020.9 1017.2 +19.7
07 18.10 З 1 н/о н/о +20.4 +13.3 64 +24 +24 комфорт 1020.8 1017.1
08 18.10 ЮЗ 1 н/о н/о +22.3 +14.4 61 +26 +26 жарко 1021.3 1017.6
09 18.10 С 8 30 км [макс. диам. градин 0 мм] 4/3 600 м
[Cu Sc Ci sp]
+23.9 +17.1 66 +28 +28 душно 1021.7 1018.0
11 18.10 СВ 10 н/о н/о +24.5 +18.8 71 +29 +29 душно 1022.4 1018.7
12 18.10 СВ 8 30 км [макс. диам. градин 0 мм] 4/1 600 м
[Cu Sc Ac und Ci fib]
+24.6 +19.1 71 +30 +31 очень
душно
1022.3 1018.7
14 18.10 СВ 6 н/о н/о +24.5 +19.8 75 +30 +30 очень
душно
1021.4 1017.8
13 18.10 СВ 6 н/о н/о +24.7 +19.6 73 +30 +30 очень
душно
1022.0 1018.4
15 18.10 СВ 5 н/о н/о +24.3 +19.3 74 +29 +29 душно 1021.0 1017.4
16 18.10 СВ 7 н/о н/о +24.2 +18.8 72 +29 +29 душно 1020.5 1016.9
17 18.10 СВ 6 н/о н/о +23.9 +18.2 70 +28 +28 душно 1020.1 1016.4
18 18.10 СВ 9 30 км [макс. диам. градин 0 мм] 5/1 1000 м
[Cu Sc Ci fib]
+23.5 +18.8 75 +28 +28 душно 1020.4 1016.7 +25.0
20 18.10 С 7 н/о н/о +23.0 +18.2 74 +29 +29 очень
душно
1020.9 1017.2
19 18.10 С 7 н/о н/о +23.5 +19.0 76 +28 +28 душно 1020.5 1016.8
21 18.10 З 2 н/о н/о +22.7 +16.7 69 +27 +27 душно 1021.1 1017.4
22 18.10 ЮЗ 2 н/о н/о +22.4 +17.1 72 +27 +27 душно 1021.3 1017.6
23 18.10 ЮЗ 2 н/о н/о +21.9 +16.4 71 +26 +26 душно 1021.3 1017.6
00 19.10 З 1 н/о н/о +22.0 +16.5 71 +26 +26 душно 1020.8 1017.1
02 19.10 С 4 н/о н/о +23.1 +17.3 70 +28 +28 душно 1020.3 1016.6
01 19.10 ЮЗ 2 н/о н/о +21.7 +16.7 73 +26 +26 душно 1020.5 1016.8
03 19.10 З 1 н/о н/о +21.8 +16.5 72 +26 +26 душно 1019.9 1016.2
04 19.10 ЮЗ 1 н/о н/о +21.3 +16.5 74 +25 +25 комфорт 1019.6 1015.9
05 19.10 З 2 н/о н/о +21.1 +15.9 72 +24 +24 комфорт 1019.7 1016.0
06 19.10 З 2 20 км [макс. диам. градин 0 мм] 1/1 600 м
[Cu Sc]
+21.1 +15.6 71 +24 +24 комфорт 1019.8 1016.1 +20.8
08 19.10 ЮЗ 1 н/о н/о +22.0 +15.8 68 +26 +26 душно 1020.4 1016.7
07 19.10 З 2 н/о н/о +21.8 +16.1 70 +26 +26 душно 1020.1 1016.4
09 19.10 С 5 30 км [макс. диам. градин 0 мм] 1/1 600 м
[Cu Sc]
+24.5 +18.0 67 +29 +30 душно 1020.8 1017.2
10 19.10 СВ 10 н/о н/о +24.8 +18.8 69 +30 +30 душно 1021.2 1017.6
11 19.10 СВ 9 н/о н/о +24.9 +19.9 74 +30 +30 душно 1021.5 1017.9
12 19.10 СВ 9 25 км [макс. диам. градин 0 мм] 3/3 600 м
[Cu Sc]
+24.9 +19.3 71 +30 +31 душно 1021.4 1017.8
14 19.10 С 7 н/о н/о +24.7 +19.9 75 +30 +30 очень
душно
1020.2 1016.6
13 19.10 СВ 8 н/о н/о +25.2 +20.0 73 +31 +31 очень
душно
1020.7 1017.1
15 19.10 С 7 30 км [макс. диам. градин 0 мм] 6/6 600 м
[Cu Sc]
+24.6 +19.7 74 +30 +31 очень
душно
1020.0 1016.4
16 19.10 СВ 8 н/о н/о +24.0 +19.7 77 +29 +29 душно 1019.5 1015.9
17 19.10 СВ 9 н/о н/о +23.6 +19.4 77 +29 +29 душно 1019.6 1015.9
18 19.10 С 8 30 км [макс. диам. градин 0 мм] 4/4 600 м
[Cu Sc]
+23.5 +19.9 80 +29 +29 душно 1019.8 1016.1 +25.4
20 19.10 С 8 н/о н/о +23.0 +19.6 81 +30 +30 очень
душно
1020.1 1016.4
19 19.10 С 8 н/о н/о +23.2 +19.3 79 +30 +30 очень
душно
1020.0 1016.3
21 19.10 С 7 н/о н/о +23.2 +19.8 81 +30 +30 очень
душно
1020.7 1017.0
22 19.10 С 5 н/о н/о +23.2 +18.7 76 +29 +29 душно 1020.9 1017.2
23 19.10 СЗ 4 н/о н/о +23.3 +18.6 75 +29 +29 душно 1020.8 1017.1
00 20.10 СЗ 4 н/о н/о +22.8 +18.2 75 +28 +28 душно 1020.6 1016.9
02 20.10 СЗ 3 н/о н/о +22.6 +17.7 74 +28 +28 душно 1020.0 1016.3
01 20.10 СЗ 3 н/о н/о +22.9 +18.7 77 +29 +29 очень
душно
1020.3 1016.6
03 20.10 СЗ 2 н/о н/о +22.5 +17.8 75 +28 +28 душно 1019.8 1016.1
04 20.10 З 2 н/о н/о +21.7 +16.9 74 +26 +26 душно 1019.7 1016.0
05 20.10 З 2 н/о н/о +21.6 +16.1 71 +25 +25 комфорт 1019.6 1015.9
06 20.10 СЗ 2 50 км [макс. диам. градин 0 мм] ясно +21.7 +15.5 68 +25 +25 комфорт 1019.8 1016.1 +21.2
08 20.10 З 1 н/о н/о +21.9 +15.3 66 +25 +25 комфорт 1020.4 1016.7
07 20.10 СЗ 2 н/о н/о +21.7 +15.3 67 +25 +25 комфорт 1020.0 1016.3
09 20.10 С 5 45 км [макс. диам. градин 0 мм] 5/5 1500 м
[Cu Sc]
+24.3 +19.0 72 +29 +30 душно 1021.0 1017.4
10 20.10 СВ 7 н/о н/о +24.5 +18.7 70 +29 +29 душно 1021.4 1017.8
11 20.10 С 6 н/о н/о +24.9 +18.7 68 +30 +30 душно 1021.6 1018.0
12 20.10 С 6 н/о н/о +25.7 +20.2 72 +32 +32 очень
душно
1021.7 1018.1
14 20.10 С 6 н/о н/о +25.4 +19.2 69 +31 +31 очень
душно
1020.7 1017.1
13 20.10 С 7 н/о н/о +25.4 +20.2 73 +31 +31 очень
душно
1021.1 1017.5
15 20.10 СВ 5 30 км [макс. диам. градин 0 мм] 4/3 600 м
[Sc As trans]
+24.6 +19.3 72 +30 +33 очень
душно
1020.6 1017.0
16 20.10 СВ 5 н/о н/о +23.4 +18.4 74 +30 +30 очень
душно
1020.8 1017.1
17 20.10 СВ 6 н/о н/о +23.5 +17.6 69 +27 +27 душно 1020.9 1017.2
18 20.10 С 5 30 км [макс. диам. градин 0 мм] 5/3 600 м
[Sc Ac As]
+23.6 +17.6 69 +28 +28 душно 1021.2 1017.5 +26.0
20 20.10 СВ 8 н/о в посл. час осадки н/о +22.9 +18.4 76 +29 +29 очень
душно
1021.6 1017.9
19 20.10 С 4 н/о н/о +23.6 +18.3 72 +28 +28 душно 1021.2 1017.5
21 20.10 С 6 н/о н/о +22.8 +18.3 76 +28 +28 душно 1021.9 1018.2
22 20.10 С 7 н/о н/о +22.7 +18.2 76 +28 +28 душно 1022.1 1018.4
23 20.10 С 7 н/о н/о +22.3 +17.9 76 +27 +27 душно 1022.1 1018.4
00 21.10 С 6 н/о н/о +22.3 +17.2 73 +27 +27 душно 1022.0 1018.3 0.7
02 21.10 СЗ 3 н/о н/о +22.2 +16.5 70 +26 +26 душно 1021.0 1017.3
01 21.10 З 3 н/о н/о +22.1 +14.4 62 +25 +25 комфорт 1021.6 1017.9
03 21.10 С 7 н/о осадки н/о +22.6 +18.4 77 +28 +28 душно 1021.0 1017.3
04 21.10 С 7 н/о н/о +22.4 +18.0 76 +27 +27 душно 1020.9 1017.2
05 21.10 С 7 н/о н/о +22.5 +18.2 77 +28 +28 душно 1021.3 1017.6
06 21.10 С 5 30 км {дождь} [макс. диам. градин 0 мм] 3/3 600 м
[Cu Sc]
+22.2 +17.2 73 +27 +27 душно 1021.6 1017.9 +21.2 0.8
08 21.10 С 8 н/о осадки н/о +22.2 +18.2 78 +27 +27 душно 1022.6 1018.9
07 21.10 С 7 н/о н/о +21.9 +17.1 74 +26 +26 душно 1022.0 1018.3
09 21.10 С 6 40 км {дождь} [макс. диам. градин 0 мм] 4/3 600 м
[Cu Sc Ci fib]
+23.4 +16.6 66 +28 +29 душно 1023.3 1019.6
10 21.10 С 8 н/о н/о +25.0 +15.7 56 +28 +28 жарко 1023.6 1019.9
11 21.10 СВ 9 н/о н/о +24.6 +20.0 76 +30 +30 очень
душно
1023.7 1020.0
12 21.10 СВ 9 30 км [макс. диам. градин 0 мм] 5/5 600 м
[Cu Sc Cs]
+24.5 +18.9 71 +29 +30 душно 1023.3 1019.6 1
14 21.10 С 8 н/о н/о +24.1 +18.5 71 +29 +29 душно 1022.0 1018.3
13 21.10 С 7 н/о н/о +24.6 +19.7 74 +30 +30 очень
душно
1022.8 1019.1
15 21.10 С 7 25 км [макс. диам. градин 0 мм] 9/9 1000 м
[Cu Sc Cs]
+24.3 +17.6 66 +28 +29 душно 1021.5 1017.8
16 21.10 С 6 н/о н/о +24.2 +17.8 67 +28 +28 душно 1021.2 1017.5
17 21.10 С 7 н/о н/о +23.7 +19.2 76 +29 +29 душно 1020.9 1017.2
18 21.10 С 7 25 км [макс. диам. градин 0 мм] 9/9 600 м
[Cu Sc Cs]
+23.2 +19.1 78 +30 +30 очень
душно
1021.2 1017.5 +25.2 1
20 21.10 С 8 н/о н/о +23.0 +19.5 81 +30 +30 очень
душно
1021.8 1018.1
19 21.10 С 6 н/о н/о +22.9 +19.3 80 +29 +29 очень
душно
1021.3 1017.6
21 21.10 С 8 н/о н/о +22.8 +19.2 80 +29 +29 очень
душно
1022.3 1018.6
22 21.10 С 9 н/о н/о +22.9 +19.1 79 +29 +29 очень
душно
1022.6 1018.9
23 21.10 С 9 н/о н/о +23.0 +19.6 81 +30 +30 очень
душно
1022.8 1019.1

 

Местоположение метеостанции La Palma (Канарские Острова): широта 28.62 долгота -17.75 высота над уровнем моря 31 м.

В архиве по умолчанию представлена погода в La Palma за последнюю неделю. Архивные данные за месяц целиком и за предыдущие месяцы, начиная с января 2011 года, Вы можете получить, выбрав интересующий диапазон дат из раскрывающегося списка и нажав кнопку "Ввод!".

Внимание! Время в таблицах - всемирное. Для получения местного времени необходимо прибавить поправку, которая в La Palma равна 0 ч.

Смотрите также архив погоды в соседних городах и на ближайших метеорологических станциях:

Погода в La Gomera (Канарские Острова) (84 км)
Погода в Jijel Port (Алжир) (84 км)
Погода в Hierro (Канарские Острова) (90 км)
Погода в Izana (Канарские Острова) (127 км)
Погода в Tenerife Sur (Канарские Острова) (133 км)
Погода в Tenerife (Канарские Острова) (142 км)
Погода в Sta. Cruz De Teneri (Канарские Острова) (148 км)
Погода в Las Palmas (Канарские Острова) (245 км)
Погода в Fuerteventura (Канарские Острова) (381 км)
Погода в Lanzarote (Канарские Острова) (406 км)

Пояснения к столбцам:

Ветер - указаны скорость ветра в м/с - средняя за 10 мин, порывы в срок и между сроками (в фигурных скобках) и направление, откуда дует ветер: С - северный, СВ - северо-восточный, В - восточный, ЮВ - юго-восточный, Ю - южный, ЮЗ - юго-западный, З - западный, СЗ - северо-западный.
Видимость - горизонтальная дальность видимости в метрах или километрах. При видимости от 1 до 10 км при отсутствии осадков обычно наблюдается дымка, при ухудшении видимости до 1 км и менее - туман. В сухую погоду видимость может ухудшаться дымом, пылью или мглою.
Явления - указаны атмосферные явления, наблюдавшиеся в срок или в последний час перед сроком; фигурными скобками обозначены явления, наблюдавшиеся между сроками (за 1-3 часа до срока); квадратными скобками обозначены град или гололедные отложения с указанием их диаметра в мм.
Облачность - указаны через наклонную черту общая и нижняя облачность в баллах и высота нижней границы облаков в метрах; квадратными скобками обозначены формы облаков: Ci - перистые, Cs - перисто-слоистые, Cc - перисто-кучевые, Ac - высококучевые, As - высокослоистые, Sc - слоисто-кучевые, Ns - слоисто-дождевые, Cu - кучевые, Cb - кучево-дождевые. Подробнее классификацию облаков см. в Атласе облаков (PDF).
T - Температура воздуха - температура, измеренная на высоте 2 м над землей.
Td - Температура точки росы - температура, при понижении до которой содержащийся в воздухе водяной пар достигнет насыщения.
f - Относительная влажность воздуха - влажноcть воздуха, измеренная на высоте 2 м над землей.
Te - Эффективная температура - температура, которую ощущает одетый по сезону человек в тени. Характеристика душности погоды. При расчете учитывается влияние влажности воздуха и скорости ветра на теплоощущения человека.
Tes - Эффективная температура на солнце - температура, которую ощущает человек, с поправкой на солнечный нагрев. Характеристика знойности погоды. Зависит от высоты солнца над горизонтом, облачности и скорости ветра. Ночью, в пасмурную погоду, а также при ветре 12 м/с и более поправка равна нулю.
P - Атмосферное давление - приведенное к уровню моря атмосферное давление.
Po - Атмосферное давление - измеренное на уровне метеостанции атмосферное давление.
Tmin - Минимальная температура - минимум температуры воздуха на высоте 2 м над землей.
Tmax - Максимальная температура - максимум температуры воздуха на высоте 2 м над землей.
R - Количество осадков - Количество выпавших осадков за период времени, мм. При наведении курсора мыши на число - период времени, за который выпало указанное количество осадков.
R24 - Количество осадков - Количество выпавших осадков за 24 часа, мм.
S - Снежный покров - Высота снежного покрова, см. При наведении курсора мыши на число - состояние снежного покрова и степень покрытия местности в баллах.